Hourly Data Report for September 06, 2017

All times are specified in Local Standard Time (LST). Add 1 hour to adjust for Daylight Saving Time where and when it is observed.

SUSSEX FOUR CORNERS
NEW BRUNSWICK

45°44'30.048" N
65°31'44.039" W
47.00 m
8105210
71656
ASF

Download Data

Hourly Data (September 2017)
Hourly Data Report for September 6, 2017
Temp Definition
°C
Dew Point Temp Definition
°C
Rel Hum Definition
%
Wind Dir Definition
10's deg

Wind Spd Definition
km/h
Visibility Definition
km
Stn Press Definition
kPa
Hmdx Definition


Wind Chill Definition


Weather Definition


TIME
00:00 18.3 17.2 93 19 23   100.54     LegendNANA
01:00 18.2 17.0 93 19 23   100.55     LegendNANA
02:00 18.0 16.4 90 19 22   100.56     LegendNANA
03:00 17.8 16.2 90 20 20   100.55     LegendNANA
04:00 18.3 16.5 89 19 24   100.57     LegendNANA
05:00 18.6 17.1 91 19 23   100.59     LegendNANA
06:00 18.4 17.2 93 20 26   100.68     LegendNANA
07:00 18.1 17.4 95 21 18   100.77     LegendNANA
08:00 18.4 17.6 95 18 14   100.81     LegendNANA
09:00 18.5 17.8 96 19 13   100.83     LegendNANA
10:00 19.3 18.0 92 18 18   100.89     LegendNANA
11:00 19.2 18.5 96 19 16   100.93     LegendNANA
12:00 20.3 19.7 97 19 13   100.91 28   LegendNANA
13:00 20.6 19.8 95 21 11   100.89 28   LegendNANA
14:00 20.4 19.6 95 21 13   100.83 28   LegendNANA
15:00 20.1 19.4 96 18 8   100.81 27   LegendNANA
16:00 19.7 19.1 97 21 9   100.83     LegendNANA
17:00 19.7 19.2 97 20 13   100.81     LegendNANA
18:00 18.8 18.2 97 21 21   100.90     LegendNANA
19:00 19.0 18.3 96 18 9   100.90     LegendNANA
20:00 18.8 18.1 96 20 15   100.97     LegendNANA
21:00 18.7 18.2 97 26 2   100.93     LegendNANA
22:00 18.8 18.5 98 17 9   100.90     LegendNANA
23:00 18.8 18.5 98 10 5   100.85     LegendNANA

Notes on Data Quality.

Legend

  • E = Estimated
  • M = Missing
  • NA = Not Available
  • ‡ = Partner data that is not subject to review by the National Climate Archives
Date modified: